Time,TemperatureF,DewpointF,PressureIn,WindDirection,WindDirectionDegrees,WindSpeedMPH,WindSpeedGustMPH,Humidity,HourlyPrecipIn,Conditions,Clouds,dailyrainin,SolarRadiationWatts/m^2,SoftwareType,DateUTC
2013-07-08 00:12:00,66.0,66.0,-100.00,SW,233,0.0,2.0,100,0.00,,,0.00,0.000000,,2013-07-08 04:12:00,
2013-07-08 00:22:00,66.0,66.0,-100.00,SW,233,0.0,2.0,100,0.00,,,0.00,0.000000,,2013-07-08 04:22:00,
2013-07-08 00:33:00,66.0,66.0,-100.00,SW,233,0.0,2.0,100,0.00,,,0.00,0.000000,,2013-07-08 04:33:00,
2013-07-08 00:42:00,66.0,66.0,-100.00,SW,233,0.0,2.0,100,0.00,,,0.00,0.000000,,2013-07-08 04:42:00,
2013-07-08 01:12:00,65.0,65.0,-100.00,WSW,240,0.0,0.0,100,0.00,,,0.00,0.000000,,2013-07-08 05:12:00,
2013-07-08 01:22:00,65.0,65.0,-100.00,WSW,240,0.0,0.0,100,0.00,,,0.00,0.000000,,2013-07-08 05:22:00,
2013-07-08 01:33:00,65.0,65.0,-100.00,WSW,240,0.0,0.0,100,0.00,,,0.00,0.000000,,2013-07-08 05:33:00,
2013-07-08 01:43:00,65.0,65.0,-100.00,WSW,240,0.0,0.0,100,0.00,,,0.00,0.000000,,2013-07-08 05:43:00,
2013-07-08 02:12:00,64.0,64.0,-100.00,SSW,195,0.0,3.0,100,0.00,,,0.00,0.000000,,2013-07-08 06:12:00,
2013-07-08 02:22:00,64.0,64.0,-100.00,SSW,195,0.0,3.0,100,0.00,,,0.00,0.000000,,2013-07-08 06:22:00,
2013-07-08 02:34:00,64.0,64.0,-100.00,SSW,195,0.0,3.0,100,0.00,,,0.00,0.000000,,2013-07-08 06:34:00,
2013-07-08 02:43:00,64.0,64.0,-100.00,SSW,195,0.0,3.0,100,0.00,,,0.00,0.000000,,2013-07-08 06:43:00,
2013-07-08 03:12:00,63.0,63.0,-100.00,SSE,155,0.0,0.0,100,0.00,,,0.00,0.000000,,2013-07-08 07:12:00,
2013-07-08 03:22:00,63.0,63.0,-100.00,SSE,155,0.0,0.0,100,0.00,,,0.00,0.000000,,2013-07-08 07:22:00,
2013-07-08 03:34:00,63.0,63.0,-100.00,SSE,155,0.0,0.0,100,0.00,,,0.00,0.000000,,2013-07-08 07:34:00,
2013-07-08 03:44:00,63.0,63.0,-100.00,SSE,155,0.0,0.0,100,0.00,,,0.00,0.000000,,2013-07-08 07:44:00,
2013-07-08 04:12:00,63.0,63.0,-100.00,SW,216,0.0,3.0,100,0.00,,,0.00,0.000000,,2013-07-08 08:12:00,
2013-07-08 04:22:00,63.0,63.0,-100.00,SW,216,0.0,3.0,100,0.00,,,0.00,0.000000,,2013-07-08 08:22:00,
2013-07-08 04:33:00,63.0,63.0,-100.00,SW,216,0.0,3.0,100,0.00,,,0.00,0.000000,,2013-07-08 08:33:00,
2013-07-08 04:42:00,63.0,63.0,-100.00,SW,216,0.0,3.0,100,0.00,,,0.00,0.000000,,2013-07-08 08:42:00,
2013-07-08 05:11:00,62.0,62.0,-100.00,SW,232,0.0,0.0,100,0.00,,,0.00,0.000000,,2013-07-08 09:11:00,
2013-07-08 05:22:00,62.0,62.0,-100.00,SW,232,0.0,0.0,100,0.00,,,0.00,0.000000,,2013-07-08 09:22:00,
2013-07-08 05:34:00,62.0,62.0,-100.00,SW,232,0.0,0.0,100,0.00,,,0.00,0.000000,,2013-07-08 09:34:00,
2013-07-08 05:43:00,62.0,62.0,-100.00,SW,232,0.0,0.0,100,0.00,,,0.00,0.000000,,2013-07-08 09:43:00,
2013-07-08 06:11:00,63.0,63.0,-100.00,SW,229,0.0,2.0,100,0.00,,,0.00,0.000000,,2013-07-08 10:11:00,
2013-07-08 06:22:00,63.0,63.0,-100.00,SW,229,0.0,2.0,100,0.00,,,0.00,0.000000,,2013-07-08 10:22:00,
2013-07-08 06:34:00,63.0,63.0,-100.00,SW,229,0.0,2.0,100,0.00,,,0.00,0.000000,,2013-07-08 10:34:00,
2013-07-08 06:43:00,63.0,63.0,-100.00,SW,229,0.0,2.0,100,0.00,,,0.00,0.000000,,2013-07-08 10:43:00,
2013-07-08 07:11:00,65.0,65.0,-100.00,SSW,209,2.0,7.0,100,0.00,,,-99.99,3.000000,,2013-07-08 11:11:00,
2013-07-08 07:23:00,65.0,65.0,-100.00,SSW,209,2.0,7.0,100,0.00,,,-99.99,3.000000,,2013-07-08 11:23:00,
2013-07-08 07:33:00,65.0,65.0,-100.00,SSW,209,2.0,7.0,100,0.00,,,-99.99,3.000000,,2013-07-08 11:33:00,
2013-07-08 07:43:00,65.0,65.0,-100.00,SSW,209,2.0,7.0,100,0.00,,,-99.99,3.000000,,2013-07-08 11:43:00,
2013-07-08 08:12:00,68.0,68.0,-100.00,WSW,247,0.0,2.0,100,0.00,,,0.00,78.000000,,2013-07-08 12:12:00,
2013-07-08 08:22:00,68.0,68.0,-100.00,WSW,247,0.0,2.0,100,0.00,,,0.00,78.000000,,2013-07-08 12:22:00,
2013-07-08 08:34:00,68.0,68.0,-100.00,WSW,247,0.0,2.0,100,0.00,,,0.00,78.000000,,2013-07-08 12:34:00,
2013-07-08 08:43:00,68.0,68.0,-100.00,WSW,247,0.0,2.0,100,0.00,,,0.00,78.000000,,2013-07-08 12:43:00,
2013-07-08 09:22:00,73.0,69.0,-100.00,SSW,205,5.0,8.0,87,0.00,,,0.00,267.000000,,2013-07-08 13:22:00,
2013-07-08 09:33:00,73.0,69.0,-100.00,SSW,205,5.0,8.0,87,0.00,,,0.00,267.000000,,2013-07-08 13:33:00,
2013-07-08 09:42:00,73.0,69.0,-100.00,SSW,205,5.0,8.0,87,0.00,,,0.00,267.000000,,2013-07-08 13:42:00,
2013-07-08 10:12:00,78.0,70.0,-100.00,SW,222,6.0,10.0,77,0.00,,,0.00,476.000000,,2013-07-08 14:12:00,
2013-07-08 10:23:00,78.0,70.0,-100.00,SW,222,6.0,10.0,77,0.00,,,0.00,476.000000,,2013-07-08 14:23:00,
2013-07-08 10:34:00,78.0,70.0,-100.00,SW,222,6.0,10.0,77,0.00,,,0.00,476.000000,,2013-07-08 14:34:00,
2013-07-08 10:43:00,78.0,70.0,-100.00,SW,222,6.0,10.0,77,0.00,,,0.00,476.000000,,2013-07-08 14:43:00,
2013-07-08 11:22:00,81.0,71.0,-100.00,SW,236,8.0,14.0,71,0.00,,,0.00,677.000000,,2013-07-08 15:22:00,
2013-07-08 11:33:00,81.0,71.0,-100.00,SW,236,8.0,14.0,71,0.00,,,0.00,677.000000,,2013-07-08 15:33:00,
2013-07-08 11:43:00,81.0,71.0,-100.00,SW,236,8.0,14.0,71,0.00,,,0.00,677.000000,,2013-07-08 15:43:00,
2013-07-08 12:22:00,82.0,70.0,-100.00,SW,222,8.0,13.0,68,0.00,,,0.00,715.000000,,2013-07-08 16:22:00,
2013-07-08 12:33:00,82.0,70.0,-100.00,SW,222,8.0,13.0,68,0.00,,,0.00,715.000000,,2013-07-08 16:33:00,
2013-07-08 12:43:00,82.0,70.0,-100.00,SW,222,8.0,13.0,68,0.00,,,0.00,715.000000,,2013-07-08 16:43:00,
2013-07-08 13:28:00,84.0,71.0,-100.00,SW,227,7.0,13.0,66,0.00,,,0.00,696.000000,,2013-07-08 17:28:00,
2013-07-08 13:37:00,84.0,71.0,-100.00,SW,227,7.0,13.0,66,0.00,,,0.00,696.000000,,2013-07-08 17:37:00,
2013-07-08 13:46:00,84.0,71.0,-100.00,SW,227,7.0,13.0,66,0.00,,,0.00,696.000000,,2013-07-08 17:46:00,
2013-07-08 14:44:00,84.0,70.0,-100.00,SW,236,7.0,13.0,62,0.00,,,0.00,911.000000,,2013-07-08 18:44:00,
2013-07-08 14:47:00,87.0,70.0,-100.00,WSW,240,8.0,13.0,58,0.00,,,0.00,967.000000,,2013-07-08 18:47:00,
2013-07-08 15:20:00,87.0,70.0,-100.00,WSW,240,8.0,13.0,58,0.00,,,0.00,967.000000,,2013-07-08 19:20:00,
2013-07-08 15:47:00,85.0,70.0,-100.00,SW,220,6.0,13.0,62,0.00,,,0.00,590.000000,,2013-07-08 19:47:00,
2013-07-08 16:23:00,85.0,70.0,-100.00,SW,220,6.0,13.0,62,0.00,,,0.00,590.000000,,2013-07-08 20:23:00,
2013-07-08 16:45:00,85.0,70.0,-100.00,SW,220,6.0,13.0,62,0.00,,,0.00,590.000000,,2013-07-08 20:45:00,
2013-07-08 16:47:00,84.0,70.0,-100.00,SW,225,3.0,9.0,64,0.00,,,0.00,388.000000,,2013-07-08 20:47:00,
2013-07-08 17:34:00,84.0,70.0,-100.00,SW,225,3.0,9.0,64,0.00,,,0.00,388.000000,,2013-07-08 21:34:00,
2013-07-08 18:25:00,85.0,70.0,-100.00,SW,216,7.0,11.0,61,0.00,,,0.00,437.000000,,2013-07-08 22:25:00,
2013-07-08 18:45:00,85.0,70.0,-100.00,SW,216,7.0,11.0,61,0.00,,,0.00,437.000000,,2013-07-08 22:45:00,
2013-07-08 19:47:00,83.0,70.0,-100.00,SSW,212,5.0,13.0,64,0.00,,,0.00,288.000000,,2013-07-08 23:47:00,
2013-07-08 20:42:00,83.0,70.0,-100.00,SSW,212,5.0,13.0,64,0.00,,,0.00,288.000000,,2013-07-09 00:42:00,
2013-07-08 20:47:00,80.0,71.0,-100.00,SSW,204,3.0,7.0,73,0.00,,,0.00,90.000000,,2013-07-09 00:47:00,
2013-07-08 21:35:00,80.0,71.0,-100.00,SSW,204,3.0,7.0,73,0.00,,,0.00,90.000000,,2013-07-09 01:35:00,
2013-07-08 21:47:00,74.0,72.0,-100.00,WSW,241,1.0,4.0,93,0.00,,,0.00,6.000000,,2013-07-09 01:47:00,
2013-07-08 22:46:00,74.0,72.0,-100.00,WSW,241,1.0,4.0,93,0.00,,,0.00,6.000000,,2013-07-09 02:46:00,
2013-07-08 22:47:00,77.0,70.0,-100.00,SSW,205,5.0,8.0,78,0.00,,,0.00,0.000000,,2013-07-09 02:47:00,
2013-07-08 23:34:00,77.0,70.0,-100.00,SSW,205,5.0,8.0,78,0.00,,,0.00,0.000000,,2013-07-09 03:34:00,